Hyannis, MA

9:28 PM EDT on September 25, 2017 (GMT -0400)
Barnstable Municipal-Boardman-Polando Field

Weather History for KHYA - June, 2014

Change the Weather History Date:

Sunday, June 15, 2014

  Actual Average Record
Temperature  
Mean Temperature 68 °F -  
Max Temperature 78 °F 72 °F 91 °F (1988)
Min Temperature 59 °F 55 °F 40 °F (1965)
Cooling Degree Days 4    
Growing Degree Days 18 (Base 50)    
Moisture  
Dew Point 54 °F    
Average Humidity 65    
Maximum Humidity 83    
Minimum Humidity 45    
Precipitation  
Precipitation 0.00 in - - ()
Sea Level Pressure  
Sea Level Pressure 29.94 in    
Wind  
Wind Speed 9 mph (NNW)    
Max Wind Speed 15 mph    
Max Gust Speed 24 mph    
Visibility 10 miles    
Events      
Averages and records for this station are not official NWS values.
T = Trace of Precipitation, MM = Missing Value Source: NWS Daily Summary

Daily Weather History Graph

Daily Weather History Graph

Search for Another Location

Airport or City:

Trip Planner

Search our weather history database for the weather conditions in past years. The results will help you decide how hot, cold, wet, or windy it might be!

Date:

Astronomy

Jun. 15, 2014 Rise Set
Actual Time 5:06 AM EDT 8:17 PM EDT
Civil Twilight 4:31 AM EDT 8:51 PM EDT
Nautical Twilight 3:48 AM EDT 9:35 PM EDT
Astronomical Twilight 2:55 AM EDT 10:27 PM EDT
Moon 10:22 PM EDT (6/15) 7:57 AM EDT (6/15)
Length of Visible Light 16h 19m
Length of Day
15h 11m
Waning Gibbous, 91% of the Moon is Illuminated
Jun 15
Waning Gibbous
Jun 19
Last Quarter
Jun 27
New
Jul 5
First Quarter
Jul 12
Full

Hourly Weather History & Observations

Time (EDT) Temp. Dew Point Humidity Pressure Visibility Wind Dir Wind Speed Gust Speed Precip Events Conditions
12:56 AM 62.1 °F 54.0 °F 75% 29.87 in 10.0 mi NW 8.1 mph - N/A   Overcast
1:56 AM 62.1 °F 53.1 °F 72% 29.87 in 10.0 mi NW 8.1 mph - N/A   Mostly Cloudy
2:56 AM 60.1 °F 53.1 °F 78% 29.87 in 10.0 mi NNW 8.1 mph - N/A   Partly Cloudy
3:56 AM 59.0 °F 52.0 °F 78% 29.87 in 10.0 mi NNW 9.2 mph - N/A   Partly Cloudy
4:56 AM 59.0 °F 52.0 °F 78% 29.88 in 10.0 mi NNW 10.4 mph - N/A   Scattered Clouds
5:56 AM 59.0 °F 52.0 °F 78% 29.91 in 10.0 mi NNW 10.4 mph - N/A   Clear
6:56 AM 61.0 °F 53.1 °F 75% 29.92 in 10.0 mi NNW 12.7 mph 20.7 mph N/A   Clear
7:56 AM 62.1 °F 53.1 °F 72% 29.94 in 10.0 mi NNW 13.8 mph 21.9 mph N/A   Partly Cloudy
8:56 AM 64.9 °F 55.0 °F 70% 29.95 in 10.0 mi North 12.7 mph 20.7 mph N/A   Clear
9:56 AM 66.9 °F 55.0 °F 66% 29.95 in 10.0 mi NNW 15.0 mph 24.2 mph N/A   Clear
10:56 AM 69.1 °F 55.0 °F 61% 29.95 in 10.0 mi NNW 15.0 mph 20.7 mph N/A   Clear
11:56 AM 71.1 °F 55.9 °F 59% 29.96 in 10.0 mi NNW 10.4 mph - N/A   Clear
12:56 PM 73.0 °F 55.0 °F 53% 29.96 in 10.0 mi NW 9.2 mph - N/A   Clear
1:56 PM 75.9 °F 54.0 °F 46% 29.96 in 10.0 mi NNE 11.5 mph - N/A   Clear
2:56 PM 78.1 °F 55.9 °F 46% 29.95 in 10.0 mi North 9.2 mph - N/A   Clear
3:56 PM 77.0 °F 54.0 °F 45% 29.95 in 10.0 mi NNW 6.9 mph - N/A   Clear
4:56 PM 77.0 °F 54.0 °F 45% 29.95 in 10.0 mi North 6.9 mph - N/A   Clear
5:56 PM 75.9 °F 54.0 °F 46% 29.95 in 10.0 mi North 8.1 mph - N/A   Scattered Clouds
6:56 PM 73.9 °F 55.0 °F 52% 29.96 in 10.0 mi NNW 8.1 mph - N/A   Clear
7:56 PM 69.1 °F 55.9 °F 63% 29.98 in 10.0 mi NNE 5.8 mph - N/A   Clear
8:56 PM 64.0 °F 55.9 °F 75% 30.00 in 10.0 mi North 3.5 mph - N/A   Clear
9:56 PM 63.0 °F 55.9 °F 78% 30.02 in 10.0 mi NW 4.6 mph - N/A   Clear
10:56 PM 63.0 °F 55.0 °F 75% 30.02 in 10.0 mi NW 3.5 mph - N/A   Clear
11:56 PM 61.0 °F 55.9 °F 83% 30.03 in 10.0 mi Calm Calm - N/A   Clear